Location: Newark
(23.3970°S, 47.6010°W)
Time: 07:48:45
(UTC+00:00)

Envisat - Visible Passes

Search period start: 19 January 2020 00:00
Search period end: 29 January 2020 00:00
Orbit: 764 x 766 km, 98.1° (Epoch: 19 January)

Date Brightness Start Highest point End Pass type
(mag) Time Alt. Az. Time Alt. Az. Time Alt. Az.
19 Jan 5.7 22:34:05 10° SSW 22:38:12 25° WSW 22:42:17 10° NW visible
20 Jan 6.5 08:02:28 10° E 08:04:34 13° ESE 08:06:40 10° SE visible
21 Jan 6.4 23:01:14 10° SW 23:03:26 13° WSW 23:05:38 10° W visible
22 Jan 5.2 22:22:28 10° SSW 22:26:59 32° WSW 22:31:29 10° NW visible
24 Jan 6.1 22:49:01 10° SSW 22:52:16 17° WSW 22:55:28 10° WNW visible
25 Jan 6.1 08:15:08 10° ENE 08:18:36 19° ESE 08:22:04 10° SSE visible
27 Jan 5.9 22:37:10 10° SSW 22:41:04 22° WSW 22:44:57 10° WNW visible
28 Jan 6.4 08:04:50 10° E 08:07:25 14° ESE 08:10:00 10° SE visible
